COSMOS 1670 DEB, 44569

Orbit data source: Space-Track

COSMOS 1670 DEB, 44569 is space debris in LEO originally from a launch on Thu, 01 Aug 1985 UTC launched from the Tyuratam Missile And Space Complex (TTMTR). Debris objects in space refer to the collection of defunct objects orbiting the Earth. Examples of debris include non-operational satellites, rocket bodies, and fragments generated from explosions, collisions, or faulty payload assembly.

Loading next visibility...
COSMOS 1670 DEB details
Identifier
44569, 1985-064F
Orbit
LEO
Last TLE update1 day ago
Origin
Flag of CISVMF RF (CIS)
ManufacturerUnknown
MissionSpacecraft
Bus & MotorUnknown
MassUnknown
Launch date (UTC)
1985-08-01 (39 years ago)
Launch vehicleUnknown
Launch site
Tyuratam Missile And Space Complex (TTMTR)
Object type
Payload
Rocket body
Debris
Shape & HBRUnknown
Radar Cross SectionSmall (<0.1 m²)

Expand to show TLE details & history

TLE from 1 day ago
0 COSMOS 1670 DEB
1 44569U 85064F   24360.57965628  .00049498  00000-0  17507-1 0  9999
2 44569  64.9152 104.1221 0043747 219.0728 152.8944 14.33721468680783
Epoch: 2024-12-25T13:54Z
Definitive object data (Epoch: 2024-12-25T13:54:42.302Z)
Latitude10.99793°
Longitude166.06637°
Altitude808.433 km
Speed7.436 km/s
True Right ascension07h 17m 15s
True Declination10° 56' 03"
Sunlit
Object was in full shadow at TLE epoch
Visualization TLE readout
Latitude33.65357°
Longitude175.37864°
Altitude813.617 km
Speed7.434 km/s
Apparent Right ascension07h 44m 38s
Apparent Declination0° 33' 19"
Sunlit
Object is in full shadow
Visualization observer readout
Local Sidereal Time19:32:34
Azimuth355.249° N
Elevation-50.543°
Doppler factor1
Orbital elements
Apogee altitude809.211 km
Perigee altitude746.6 km
Semi-major axis7,156.042 km
Eccentricity0.0043747
Inclination64.9152°
RAAN104.1221°
Arg. of periapsis219.0728°
True anomaly153.1217°
Mean anomaly152.8944°
Eccentric anomaly153.00816°
Mean motion3.58537 °/min
BSTAR0.017507
Orbital period100.41 mins
Loading maneuver chart data...
Loading historical data...
Loading historical data...
Loading historical data...
Loading historical data...
Loading historical data...
Loading historical data...
Loading historical data...

COSMOS 1670 DEB Visibility forecast

Observer location: undefined°, undefined

Span
Click to sort rows by Start time (UTC) header in descending order
Start Az.
Max El. time (UTC)
Max El. Az.
Max El.
End time (UTC)
End Az.
8 mins2024-12-27 07:49:47.180Z171.205° S2024-12-27 07:53:47.180Z110.829° ESE29.772°2024-12-27 07:57:47.180Z53.546° ENE
8 mins2024-12-27 09:33:47.180Z255.313° W2024-12-27 09:36:47.180Z303.557° NW30.179°2024-12-27 09:41:47.180Z15.078° NNE
8 mins2024-12-27 16:36:47.180Z350.38° N2024-12-27 16:40:47.180Z54.858° ENE29.664°2024-12-27 16:44:47.180Z111.864° ESE
7 mins2024-12-27 18:20:47.180Z299.493° NW2024-12-27 18:23:47.180Z250.067° W28.907°2024-12-27 18:27:47.180Z188.822° SSW
|